When you browse on this site, cookies collect data to enhance your experience and personalize the content and advertising you see.
Visit our Privacy Policy to learn more. By continuing to use the site, you agree to this use of cookies and data.
  • In Hungary
  • List of Countries
  • For 7 days
  • Water Temperature
  • Weather Map
  • News
  • Weather Widgets
  • user-avatar
    Login

    Hourly Weather Tabachne

    Today, 12 November, Tuesday

    Time Temperature Precipitation Wind Pressure Humidity
    00:00 +14°C° 0 mm 0 mps 762 mmHg 77%
    01:00 +15°C° 0 mm 1 mps 762 mmHg 77%
    02:00 +15°C° 0 mm 1 mps 762 mmHg 78%
    03:00 +15°C° 0 mm 1 mps 762 mmHg 76%
    04:00 +15°C° 0 mm 2 mps 762 mmHg 75%
    05:00 +15°C° 0 mm 2 mps 762 mmHg 74%
    06:00 +16°C° 0 mm 2 mps 762 mmHg 71%
    07:00 +16°C° 0 mm 2 mps 763 mmHg 68%
    08:00 +17°C° 0 mm 3 mps 763 mmHg 67%
    09:00 +19°C° 0 mm 3 mps 763 mmHg 61%
    10:00 +21°C° 0 mm 3 mps 763 mmHg 55%
    11:00 +22°C° 0 mm 4 mps 763 mmHg 49%
    12:00 +23°C° 0 mm 4 mps 763 mmHg 47%
    13:00 +25°C° 0 mm 3 mps 762 mmHg 45%
    14:00 +25°C° 0 mm 3 mps 762 mmHg 42%
    15:00 +22°C° 0 mm 3 mps 762 mmHg 49%
    16:00 +20°C° 0 mm 3 mps 762 mmHg 56%
    17:00 +19°C° 0 mm 4 mps 762 mmHg 63%
    18:00 +18°C° 0 mm 3 mps 762 mmHg 63%
    19:00 +18°C° 0 mm 3 mps 762 mmHg 64%
    20:00 +18°C° 0 mm 3 mps 762 mmHg 64%
    21:00 +17°C° 0 mm 3 mps 762 mmHg 64%
    22:00 +17°C° 0 mm 3 mps 762 mmHg 64%
    23:00 +17°C° 0 mm 3 mps 762 mmHg 64%

    Tomorrow, 13 November, Wednesday

    Time Temperature Precipitation Wind Pressure Humidity
    00:00 +17°C° 0 mm 3 mps 762 mmHg 62%
    01:00 +16°C° 0 mm 3 mps 762 mmHg 59%
    02:00 +16°C° 0 mm 3 mps 762 mmHg 57%
    03:00 +15°C° 0 mm 4 mps 761 mmHg 55%
    04:00 +15°C° 0 mm 4 mps 761 mmHg 52%
    05:00 +15°C° 0 mm 4 mps 761 mmHg 50%
    06:00 +17°C° 0 mm 4 mps 761 mmHg 47%
    07:00 +17°C° 0 mm 4 mps 761 mmHg 44%
    08:00 +18°C° 0 mm 4 mps 761 mmHg 42%
    09:00 +20°C° 0 mm 4 mps 761 mmHg 37%
    10:00 +22°C° 0 mm 4 mps 760 mmHg 32%
    11:00 +25°C° 0 mm 4 mps 760 mmHg 27%
    12:00 +25°C° 0 mm 4 mps 760 mmHg 25%
    13:00 +25°C° 0 mm 4 mps 760 mmHg 24%
    14:00 +25°C° 0 mm 4 mps 759 mmHg 23%
    15:00 +22°C° 0 mm 4 mps 759 mmHg 27%
    16:00 +20°C° 0 mm 4 mps 759 mmHg 32%
    17:00 +18°C° 0 mm 4 mps 759 mmHg 37%
    18:00 +17°C° 0 mm 4 mps 759 mmHg 38%
    19:00 +15°C° 0 mm 4 mps 759 mmHg 39%
    20:00 +14°C° 0 mm 5 mps 759 mmHg 41%
    21:00 +14°C° 0 mm 4 mps 759 mmHg 45%
    22:00 +13°C° 0 mm 4 mps 759 mmHg 48%
    23:00 +13°C° 0 mm 4 mps 758 mmHg 52%

    Day after tomorrow, 14 November, Thursday

    Time Temperature Precipitation Wind Pressure Humidity
    00:00 +13°C° 0 mm 4 mps 758 mmHg 54%
    01:00 +12°C° 0 mm 4 mps 758 mmHg 57%
    02:00 +12°C° 0 mm 4 mps 758 mmHg 59%
    03:00 +12°C° 0 mm 4 mps 757 mmHg 57%
    04:00 +11°C° 0 mm 4 mps 757 mmHg 55%
    05:00 +11°C° 0 mm 3 mps 757 mmHg 54%
    06:00 +12°C° 0 mm 3 mps 757 mmHg 52%
    07:00 +13°C° 0 mm 4 mps 757 mmHg 49%
    08:00 +13°C° 0 mm 4 mps 757 mmHg 47%
    09:00 +15°C° 0 mm 4 mps 757 mmHg 41%
    10:00 +19°C° 0 mm 4 mps 757 mmHg 36%
    11:00 +21°C° 0 mm 4 mps 757 mmHg 30%
    12:00 +21°C° 0 mm 4 mps 757 mmHg 28%
    13:00 +21°C° 0 mm 4 mps 757 mmHg 27%
    14:00 +22°C° 0 mm 4 mps 757 mmHg 26%
    15:00 +20°C° 0 mm 4 mps 757 mmHg 31%
    16:00 +18°C° 0 mm 4 mps 757 mmHg 36%
    17:00 +15°C° 0 mm 4 mps 757 mmHg 41%
    18:00 +14°C° 0 mm 4 mps 757 mmHg 41%
    19:00 +14°C° 0 mm 4 mps 757 mmHg 41%
    20:00 +14°C° 0 mm 3 mps 757 mmHg 40%
    21:00 +13°C° 0 mm 3 mps 757 mmHg 42%
    22:00 +13°C° 0 mm 3 mps 757 mmHg 43%
    23:00 +12°C° 0 mm 3 mps 757 mmHg 45%

    15 November, Friday

    Time Temperature Precipitation Wind Pressure Humidity
    00:00 +12°C° 0 mm 3 mps 757 mmHg 45%
    01:00 +12°C° 0 mm 3 mps 758 mmHg 46%
    02:00 +12°C° 0 mm 3 mps 758 mmHg 46%
    03:00 +13°C° 0 mm 2 mps 758 mmHg 46%
    04:00 +12°C° 0 mm 2 mps 757 mmHg 47%
    05:00 +12°C° 0 mm 2 mps 757 mmHg 47%
    06:00 +13°C° 0 mm 2 mps 758 mmHg 45%
    07:00 +13°C° 0 mm 2 mps 758 mmHg 44%
    08:00 +14°C° 0 mm 2 mps 758 mmHg 43%
    09:00 +15°C° 0 mm 2 mps 759 mmHg 39%
    10:00 +17°C° 0 mm 2 mps 759 mmHg 35%
    11:00 +19°C° 0 mm 2 mps 759 mmHg 31%
    12:00 +19°C° 0 mm 2 mps 759 mmHg 32%
    13:00 +19°C° 0 mm 2 mps 759 mmHg 33%
    14:00 +19°C° 0 mm 2 mps 759 mmHg 34%
    15:00 +17°C° 0 mm 2 mps 759 mmHg 42%
    16:00 +14°C° 0 mm 3 mps 760 mmHg 50%
    17:00 +12°C° 0 mm 3 mps 760 mmHg 57%
    18:00 +12°C° 0 mm 3 mps 760 mmHg 59%
    19:00 +11°C° 0 mm 3 mps 760 mmHg 60%
    20:00 +11°C° 0 mm 3 mps 760 mmHg 61%
    21:00 +10°C° 0 mm 2 mps 761 mmHg 63%
    22:00 +10°C° 0 mm 2 mps 761 mmHg 64%
    23:00 +10°C° 0 mm 2 mps 761 mmHg 65%

    16 November, Saturday

    Time Temperature Precipitation Wind Pressure Humidity
    00:00 +10°C° 0 mm 2 mps 761 mmHg 66%
    01:00 +9°C° 0 mm 3 mps 761 mmHg 67%
    02:00 +9°C° 0 mm 3 mps 761 mmHg 68%
    03:00 +9°C° 0 mm 3 mps 761 mmHg 70%
    04:00 +7°C° 0 mm 4 mps 761 mmHg 72%
    05:00 +7°C° 0 mm 4 mps 761 mmHg 74%
    06:00 +7°C° 0 mm 4 mps 761 mmHg 73%
    07:00 +8°C° 0 mm 4 mps 761 mmHg 72%
    08:00 +8°C° 0 mm 5 mps 761 mmHg 71%
    09:00 +9°C° 0 mm 5 mps 761 mmHg 65%
    10:00 +12°C° 0 mm 5 mps 761 mmHg 59%
    11:00 +13°C° 0 mm 5 mps 761 mmHg 53%
    12:00 +14°C° 0 mm 5 mps 761 mmHg 52%
    13:00 +14°C° 0 mm 5 mps 761 mmHg 51%
    14:00 +14°C° 0 mm 5 mps 761 mmHg 50%
    15:00 +13°C° 0 mm 4 mps 761 mmHg 57%
    16:00 +12°C° 0 mm 4 mps 761 mmHg 64%
    17:00 +10°C° 0 mm 4 mps 761 mmHg 71%
    18:00 +10°C° 0 mm 4 mps 761 mmHg 73%
    19:00 +10°C° 0 mm 3 mps 761 mmHg 75%
    20:00 +9°C° 0 mm 3 mps 761 mmHg 77%
    21:00 +9°C° 0 mm 3 mps 761 mmHg 77%
    22:00 +9°C° 0 mm 3 mps 761 mmHg 78%
    23:00 +8°C° 0 mm 3 mps 762 mmHg 79%

    17 November, Sunday

    Time Temperature Precipitation Wind Pressure Humidity
    00:00 +8°C° 0 mm 3 mps 762 mmHg 79%
    01:00 +8°C° 0 mm 3 mps 762 mmHg 80%
    02:00 +7°C° 0 mm 3 mps 762 mmHg 80%
    03:00 +7°C° 0 mm 3 mps 762 mmHg 80%
    04:00 +7°C° 0 mm 3 mps 762 mmHg 81%
    05:00 +7°C° 0 mm 3 mps 762 mmHg 81%
    06:00 +7°C° 0 mm 4 mps 762 mmHg 80%
    07:00 +8°C° 0 mm 4 mps 762 mmHg 79%
    08:00 +8°C° 0 mm 4 mps 762 mmHg 79%
    09:00 +11°C° 0 mm 4 mps 763 mmHg 70%
    10:00 +13°C° 0 mm 4 mps 763 mmHg 61%
    11:00 +15°C° 0 mm 4 mps 763 mmHg 52%
    12:00 +17°C° 0 mm 4 mps 763 mmHg 47%
    13:00 +17°C° 0 mm 4 mps 763 mmHg 42%
    14:00 +17°C° 0 mm 4 mps 763 mmHg 37%
    15:00 +14°C° 0 mm 4 mps 763 mmHg 45%
    16:00 +13°C° 0 mm 4 mps 763 mmHg 52%
    17:00 +10°C° 0 mm 5 mps 763 mmHg 59%
    18:00 +9°C° 0 mm 5 mps 763 mmHg 59%
    19:00 +9°C° 0 mm 5 mps 763 mmHg 59%
    20:00 +9°C° 0 mm 5 mps 763 mmHg 58%
    21:00 +8°C° 0 mm 5 mps 763 mmHg 61%
    22:00 +8°C° 0 mm 6 mps 763 mmHg 63%
    23:00 +8°C° 0 mm 6 mps 763 mmHg 65%
    Show more